Date String (YYYY-MM-DD hh:mm:ss) UTC,Instrument flags,Ambient pressure (hPa),Sample flow (lpm),Bypass flow (lpm),Sample temperature (°C),Ambient temperature (°C),ASC tube jacket temperature (°C),LED temperature (°C),Box temperature (°C),Sample RH (%),Span deviation,Mass concentration (μg/m³),Mass concentration (μg/m³),Mass concentration (μg/m³)
DateTimeUTC,F1_M11,P_M11,Q1_M11,Q2_M11,T1_M11,T2_M11,T3_M11,T4_M11,T5_M11,U1_M11,ZSPAN_M11,X2_M11,X0_M11,X1_M11
2022-07-11 20:00:00,,0833.2,4.98,0.00,29.8,28.7,00.0,38.5,31.8,30.9,-000.7,0007.53,0014.28,0006.66
2022-07-11 20:01:00,,0833.2,5.01,0.00,29.8,28.8,00.0,38.5,31.8,30.9,-000.8,0007.56,0014.11,0006.64
2022-07-11 20:02:00,,0833.3,5.01,0.00,29.9,28.9,00.0,38.5,31.9,30.7,-000.9,0007.60,0013.76,0006.68
2022-07-11 20:03:00,,0833.3,5.00,0.00,29.9,28.8,00.0,38.5,31.9,30.7,-000.4,0007.71,0013.33,0006.73
2022-07-11 20:04:00,,0833.2,4.99,0.00,29.9,27.9,00.0,38.5,31.7,30.5,-000.6,0007.77,0012.99,0006.75
2022-07-11 20:05:00,,0833.2,5.00,0.00,29.8,27.4,00.0,38.4,31.6,30.7,-000.1,0007.83,0013.59,0006.80
2022-07-11 20:06:00,,0833.2,5.01,0.00,29.7,27.2,00.0,38.4,31.5,30.8,-000.2,0007.89,0013.85,0006.87
2022-07-11 20:07:00,,0833.1,5.01,0.00,29.7,27.3,00.0,38.4,31.4,31.2,-000.1,0007.92,0013.92,0006.92
2022-07-11 20:08:00,,0833.2,4.99,0.00,29.6,27.4,00.0,38.4,31.4,31.2,0000.2,0007.96,0014.04,0006.95
2022-07-11 20:09:00,,0833.2,5.00,0.00,29.6,27.6,00.0,38.4,31.4,31.2,0000.1,0007.97,0014.16,0006.97
2022-07-11 20:10:00,,0833.2,4.99,0.00,29.6,27.8,00.0,38.4,31.5,31.0,-000.1,0007.95,0013.96,0006.99
2022-07-11 20:11:00,,0833.2,5.02,0.00,29.6,28.0,00.0,38.4,31.5,31.0,0000.2,0007.92,0014.32,0007.01
2022-07-11 20:12:00,,0833.2,5.00,0.00,29.6,28.1,00.0,38.4,31.5,30.9,0000.0,0007.91,0015.17,0007.04
2022-07-11 20:13:00,,0833.2,5.00,0.00,29.7,28.3,00.0,38.4,31.6,31.0,0000.0,0007.89,0016.06,0007.01
2022-07-11 20:14:00,,0833.2,5.00,0.00,29.7,28.4,00.0,38.4,31.6,31.0,0000.0,0007.87,0016.62,0006.97
2022-07-11 20:15:00,,0833.1,5.01,0.00,29.7,28.5,00.0,38.4,31.7,30.8,0000.0,0007.78,0016.73,0006.93
2022-07-11 20:16:00,,0833.2,5.01,0.00,29.7,28.6,00.0,38.4,31.8,30.6,0000.0,0007.72,0017.00,0006.86
2022-07-11 20:17:00,,0833.2,5.00,0.00,29.8,28.7,00.0,38.4,31.8,30.8,-000.2,0007.68,0016.74,0006.83
2022-07-11 20:18:00,,0833.2,4.99,0.00,29.8,28.8,00.0,38.5,31.8,30.9,-000.3,0007.71,0016.99,0006.84
2022-07-11 20:19:00,,0833.2,4.99,0.00,29.9,28.9,00.0,38.5,31.9,30.8,-000.2,0007.74,0017.52,0006.87
2022-07-11 20:20:00,,0833.2,5.00,0.00,29.9,28.8,00.0,38.5,31.9,30.4,0000.0,0007.74,0017.45,0006.87
2022-07-11 20:21:00,,0833.2,5.00,0.00,29.9,28.0,00.0,38.5,31.7,30.2,0000.0,0007.75,0017.60,0006.85
2022-07-11 20:22:00,,0833.1,5.00,0.00,29.8,27.3,00.0,38.4,31.5,30.3,0000.0,0007.78,0017.88,0006.84
2022-07-11 20:23:00,,0833.1,5.00,0.00,29.7,27.1,00.0,38.4,31.4,30.7,0000.0,0007.78,0018.75,0006.81
2022-07-11 20:24:00,,0833.1,5.00,0.00,29.6,27.2,00.0,38.4,31.3,31.1,0000.0,0007.78,0018.01,0006.80
2022-07-11 20:25:00,,0833.1,4.99,0.00,29.6,27.3,00.0,38.4,31.4,31.5,0000.0,0007.73,0017.28,0006.81
2022-07-11 20:26:00,,0833.1,5.01,0.00,29.6,27.5,00.0,38.4,31.4,31.3,0000.0,0007.81,0017.29,0006.85
2022-07-11 20:27:00,,0833.1,4.99,0.00,29.6,27.7,00.0,38.3,31.4,31.3,0000.0,0007.86,0017.33,0006.90
2022-07-11 20:28:00,,0833.1,5.01,0.00,29.6,27.9,00.0,38.4,31.5,31.6,0000.0,0007.91,0017.61,0006.92
2022-07-11 20:29:00,,0833.1,5.00,0.00,29.6,28.1,00.0,38.4,31.5,31.4,0000.0,0007.90,0017.89,0006.91
2022-07-11 20:30:00,,0833.1,5.00,0.00,29.6,28.2,00.0,38.4,31.6,31.4,0000.0,0007.91,0017.46,0006.90
2022-07-11 20:31:00,,0833.1,5.01,0.00,29.6,28.3,00.0,38.4,31.6,31.2,0000.0,0007.95,0017.45,0006.96
2022-07-11 20:32:00,,0833.1,5.01,0.00,29.7,28.5,00.0,38.4,31.6,31.1,0000.0,0007.99,0017.15,0007.04
2022-07-11 20:33:00,,0833.1,5.00,0.00,29.7,28.6,00.0,38.4,31.7,31.3,0000.0,0008.07,0016.43,0007.12
2022-07-11 20:34:00,,0833.0,5.00,0.00,29.7,28.7,00.0,38.4,31.7,31.1,0000.0,0008.13,0015.08,0007.22
2022-07-11 20:35:00,,0833.1,4.98,0.00,29.8,28.8,00.0,38.4,31.8,30.9,0000.0,0008.20,0015.20,0007.31
2022-07-11 20:36:00,,0833.0,5.01,0.00,29.8,28.8,00.0,38.5,31.8,30.7,0000.2,0008.28,0015.47,0007.38
2022-07-11 20:37:00,,0833.0,5.00,0.00,29.8,28.4,00.0,38.4,31.8,30.5,0000.2,0008.34,0015.51,0007.43
2022-07-11 20:38:00,,0833.0,5.00,0.00,29.8,27.6,00.0,38.4,31.6,30.7,0000.4,0008.41,0014.88,0007.49
2022-07-11 20:39:00,,0833.1,5.00,0.00,29.7,27.2,00.0,38.4,31.5,30.8,0000.4,0008.46,0014.47,0007.54
2022-07-11 20:40:00,,0833.1,5.00,0.00,29.6,27.2,00.0,38.4,31.4,30.9,0000.1,0008.52,0013.84,0007.59
2022-07-11 20:41:00,,0833.0,5.00,0.00,29.6,27.3,00.0,38.4,31.3,30.8,-000.1,0008.54,0013.75,0007.65
2022-07-11 20:42:00,,0833.0,4.99,0.00,29.5,27.4,00.0,38.3,31.4,30.8,-000.2,0008.61,0013.95,0007.67
2022-07-11 20:43:00,,0833.0,5.01,0.00,29.5,27.6,00.0,38.3,31.4,31.0,0000.0,0008.65,0014.47,0007.68
2022-07-11 20:44:00,,0832.8,4.99,0.00,29.5,27.8,00.0,38.3,31.4,31.3,0000.1,0008.65,0015.00,0007.68
2022-07-11 20:45:00,,0832.8,5.00,0.00,29.5,28.0,00.0,38.3,31.5,31.6,-000.2,0008.68,0014.93,0007.67
2022-07-11 20:46:00,,0832.8,5.01,0.00,29.6,28.1,00.0,38.3,31.5,31.6,-000.3,0008.72,0015.87,0007.67
2022-07-11 20:47:00,,0832.8,5.00,0.00,29.6,28.3,00.0,38.3,31.5,31.1,-000.4,0008.75,0017.55,0007.68
2022-07-11 20:48:00,,0832.8,5.00,0.00,29.6,28.4,00.0,38.3,31.6,31.0,-000.4,0008.73,0017.90,0007.67
2022-07-11 20:49:00,,0832.8,5.00,0.00,29.6,28.5,00.0,38.4,31.6,31.0,-000.7,0008.75,0018.58,0007.65
2022-07-11 20:50:00,,0832.9,5.00,0.00,29.7,28.6,00.0,38.4,31.7,31.1,-001.1,0008.74,0018.52,0007.64
2022-07-11 20:51:00,,0832.8,5.00,0.00,29.7,28.7,00.0,38.4,31.7,30.9,-000.9,0008.74,0018.76,0007.63
2022-07-11 20:52:00,,0832.9,5.00,0.00,29.7,28.8,00.0,38.4,31.7,31.1,-000.7,0008.83,0019.39,0007.62
2022-07-11 20:53:00,,0832.9,5.00,0.00,29.8,28.8,00.0,38.4,31.8,31.1,-000.6,0008.82,0019.43,0007.61
2022-07-11 20:54:00,,0833.0,5.00,0.00,29.8,28.5,00.0,38.4,31.7,31.0,-000.6,0008.79,0019.39,0007.59
2022-07-11 20:55:00,,0832.9,4.99,0.00,29.7,27.7,00.0,38.4,31.6,30.9,-000.7,0008.76,0018.87,0007.59
2022-07-11 20:56:00,,0832.8,5.01,0.00,29.7,27.2,00.0,38.3,31.4,31.1,-000.0,0008.73,0019.19,0007.62
2022-07-11 20:57:00,,0832.9,4.99,0.00,29.6,27.1,00.0,38.3,31.3,31.4,0000.0,0008.72,0018.32,0007.64
2022-07-11 20:58:00,,0832.8,5.01,0.00,29.5,27.2,00.0,38.3,31.3,31.5,0000.0,0008.76,0018.04,0007.64
2022-07-11 20:59:00,,0832.9,4.99,0.00,29.5,27.4,00.0,38.3,31.3,31.3,0000.0,0008.80,0018.59,0007.64
